DK4ARL Weather Reports


Display with metric or nautical units.
time (UTC)temp
F
wind
direction
speed
MPH
gust
MPH
rain 1hr
in
rain 24hr
in
rain mn
in
humidity
%
barometer
mb
20260504160435 72 0.0 0.0 0.00 0.00 0.00 975.3
20260504140315 74 0.0 0.0 0.00 0.00 0.00 976.1
20260504130233 72 0.0 0.0 0.00 0.00 0.00 976.5
20260504120143 77 0.0 0.0 0.00 0.00 0.00 976.9
20260504081419 70 0.0 0.0 0.00 0.00 0.00 978.2
20260504050228 51 0.0 0.0 0.00 0.00 0.00 978.2
20260504044751 52 0.0 0.0 0.00 0.00 0.00 978.1
20260504043315 52 0.0 0.0 0.00 0.00 0.00 978.1
20260504041839 51 0.0 0.0 0.00 0.00 0.00 978.1
20260504040403 51 0.0 0.0 0.00 0.00 0.00 978.1
20260504034926 50 0.0 0.0 0.00 0.00 0.00 978.1
20260504030536 50 0.0 0.0 0.00 0.00 0.00 978.1
20260504025108 51 0.0 0.0 0.00 0.00 0.00 978.1
20260504023629 52 0.0 0.0 0.00 0.00 0.00 978.1
20260504022151 52 0.0 0.0 0.00 0.00 0.00 978.0
20260504015231 54 0.0 0.0 0.00 0.00 0.00 978.0
20260504013750 54 0.0 0.0 0.00 0.00 0.00 978.0
20260504012308 55 0.0 0.0 0.00 0.00 0.00 978.0
20260504010826 55 0.0 0.0 0.00 0.00 0.00 978.0
20260504005344 56 0.0 0.0 0.00 0.00 0.00 978.1
20260504003901 56 0.0 0.0 0.00 0.00 0.00 978.1
20260504002418 57 0.0 0.0 0.00 0.00 0.00 978.2
20260504000935 56 0.0 0.0 0.00 0.00 0.00 978.2
20260503231038 58 0.0 0.0 0.00 0.00 0.00 978.3
20260503225553 58 0.0 0.0 0.00 0.00 0.00 978.3
20260503224108 59 0.0 0.0 0.00 0.00 0.00 978.3
20260503222622 59 0.0 0.0 0.00 0.00 0.00 978.2
20260503221135 60 0.0 0.0 0.00 0.00 0.00 978.1
20260503215649 60 0.0 0.0 0.00 0.00 0.00 978.0
20260503214214 61 0.0 0.0 0.00 0.00 0.00 977.9
20260503212728 61 0.0 0.0 0.00 0.00 0.00 977.9
20260503211242 62 0.0 0.0 0.00 0.00 0.00 977.8
20260503205755 62 0.0 0.0 0.00 0.00 0.00 977.8
20260503202821 62 0.0 0.0 0.00 0.00 0.00 977.6
20260503201333 63 0.0 0.0 0.00 0.00 0.00 977.4
20260503195842 64 0.0 0.0 0.00 0.00 0.00 977.3
20260503192859 64 0.0 0.0 0.00 0.00 0.00 977.0
20260503191406 64 0.0 0.0 0.00 0.00 0.00 976.9
20260503185912 64 0.0 0.0 0.00 0.00 0.00 976.7
20260503184418 65 0.0 0.0 0.00 0.00 0.00 976.5
20260503182922 66 0.0 0.0 0.00 0.00 0.00 976.4
20260503181424 66 0.0 0.0 0.00 0.00 0.00 976.2
20260503175926 68 0.0 0.0 0.00 0.00 0.00 976.1
20260503174426 68 0.0 0.0 0.00 0.00 0.00 976.0
20260503172926 67 0.0 0.0 0.00 0.00 0.00 976.0